Time,TemperatureF,DewpointF,PressureIn,WindDirection,WindDirectionDegrees,WindSpeedMPH,WindSpeedGustMPH,Humidity,HourlyPrecipIn,Conditions,Clouds,dailyrainin,SolarRadiationWatts/m^2,SoftwareType,DateUTC
2013-11-26 00:14:00,62.6,59.0,30.10,East,88,1.0,5.0,88,0.00,,,0.00,0,weatherlink.com 1.10,2013-11-26 05:14:00,
2013-11-26 00:29:00,62.8,59.0,30.10,East,83,0.0,5.0,87,0.00,,,0.00,0,weatherlink.com 1.10,2013-11-26 05:29:00,
2013-11-26 00:44:00,62.9,59.0,30.09,ESE,111,0.0,2.0,87,0.00,,,0.00,0,weatherlink.com 1.10,2013-11-26 05:44:00,
2013-11-26 00:59:00,63.0,59.0,30.08,East,91,0.0,1.0,88,0.00,,,0.00,0,weatherlink.com 1.10,2013-11-26 05:59:00,
2013-11-26 01:14:00,63.2,60.0,30.08,ESE,104,0.0,3.0,88,0.00,,,0.00,0,weatherlink.com 1.10,2013-11-26 06:14:00,
2013-11-26 01:29:00,63.3,60.0,30.08,ESE,102,0.0,2.0,88,0.00,,,0.00,0,weatherlink.com 1.10,2013-11-26 06:29:00,
2013-11-26 01:44:00,63.3,60.0,30.07,East,94,0.0,3.0,88,0.00,,,0.00,0,weatherlink.com 1.10,2013-11-26 06:44:00,
2013-11-26 01:59:00,63.2,60.0,30.06,East,81,0.0,5.0,88,0.00,,,0.00,0,weatherlink.com 1.10,2013-11-26 06:59:00,
2013-11-26 02:14:00,62.9,60.0,30.05,ENE,57,1.0,5.0,89,0.00,,,0.00,0,weatherlink.com 1.10,2013-11-26 07:14:00,
2013-11-26 02:29:00,63.1,60.0,30.04,East,88,1.0,8.0,89,0.00,,,0.00,0,weatherlink.com 1.10,2013-11-26 07:29:00,
2013-11-26 02:44:00,63.6,60.0,30.03,East,93,0.0,5.0,89,0.00,,,0.00,0,weatherlink.com 1.10,2013-11-26 07:44:00,
2013-11-26 02:59:00,64.0,61.0,30.04,ESE,110,0.0,4.0,89,0.00,,,0.00,0,weatherlink.com 1.10,2013-11-26 07:59:00,
2013-11-26 03:14:00,64.1,61.0,30.03,ESE,113,1.0,3.0,89,0.00,,,0.00,0,weatherlink.com 1.10,2013-11-26 08:14:00,
2013-11-26 03:29:00,64.3,61.0,30.03,SE,136,0.0,3.0,90,0.00,,,0.00,0,weatherlink.com 1.10,2013-11-26 08:29:00,
2013-11-26 03:44:00,64.4,62.0,30.03,East,98,0.0,5.0,90,0.00,,,0.00,0,weatherlink.com 1.10,2013-11-26 08:44:00,
2013-11-26 04:00:00,64.4,62.0,30.02,East,93,0.0,4.0,90,0.00,,,0.00,0,weatherlink.com 1.10,2013-11-26 09:00:00,
2013-11-26 04:15:00,64.6,62.0,30.01,East,87,0.0,5.0,91,0.00,,,0.00,0,weatherlink.com 1.10,2013-11-26 09:15:00,
2013-11-26 04:30:00,64.9,62.0,30.01,East,94,2.0,5.0,91,0.00,,,0.00,0,weatherlink.com 1.10,2013-11-26 09:30:00,
2013-11-26 04:45:00,65.2,63.0,30.01,ESE,107,1.0,5.0,91,0.00,,,0.00,0,weatherlink.com 1.10,2013-11-26 09:45:00,
2013-11-26 05:15:00,65.5,63.0,30.00,ESE,102,1.0,3.0,91,0.00,,,0.00,0,weatherlink.com 1.10,2013-11-26 10:15:00,
2013-11-26 05:30:00,65.6,63.0,30.00,East,94,0.0,3.0,91,0.00,,,0.00,0,weatherlink.com 1.10,2013-11-26 10:30:00,
2013-11-26 05:45:00,65.7,63.0,29.99,ESE,105,0.0,4.0,92,0.00,,,0.00,0,weatherlink.com 1.10,2013-11-26 10:45:00,
2013-11-26 06:00:00,65.6,64.0,29.98,ESE,111,2.0,3.0,93,0.00,,,0.00,0,weatherlink.com 1.10,2013-11-26 11:00:00,
2013-11-26 06:15:00,65.6,64.0,29.98,East,99,1.0,4.0,94,0.00,,,0.00,0,weatherlink.com 1.10,2013-11-26 11:15:00,
2013-11-26 06:30:00,65.7,64.0,29.97,East,98,2.0,7.0,94,0.00,,,0.00,0,weatherlink.com 1.10,2013-11-26 11:30:00,
2013-11-26 06:45:00,65.8,64.0,29.97,East,93,0.0,4.0,95,0.01,,,0.01,0,weatherlink.com 1.10,2013-11-26 11:45:00,
2013-11-26 07:00:00,66.1,65.0,29.95,East,92,3.0,8.0,95,0.01,,,0.01,0,weatherlink.com 1.10,2013-11-26 12:00:00,
2013-11-26 07:15:00,66.4,65.0,29.95,South,171,1.0,3.0,96,0.01,,,0.01,7,weatherlink.com 1.10,2013-11-26 12:15:00,
2013-11-26 07:30:00,66.7,66.0,29.95,East,98,0.0,8.0,96,0.01,,,0.01,5,weatherlink.com 1.10,2013-11-26 12:30:00,
2013-11-26 07:45:00,67.0,66.0,29.96,SE,130,1.0,5.0,96,0.07,,,0.08,0,weatherlink.com 1.10,2013-11-26 12:45:00,
2013-11-26 08:00:00,67.1,66.0,29.95,ESE,105,3.0,5.0,97,0.18,,,0.19,5,weatherlink.com 1.10,2013-11-26 13:00:00,
2013-11-26 08:30:00,67.5,67.0,29.95,SE,142,1.0,10.0,97,0.29,,,0.30,7,weatherlink.com 1.10,2013-11-26 13:30:00,
2013-11-26 09:00:00,67.9,67.0,29.94,ESE,111,3.0,6.0,97,0.18,,,0.38,12,weatherlink.com 1.10,2013-11-26 14:00:00,
2013-11-26 09:15:00,68.2,67.0,29.94,SE,142,1.0,11.0,97,0.15,,,0.40,42,weatherlink.com 1.10,2013-11-26 14:15:00,
2013-11-26 09:30:00,68.5,68.0,29.93,East,92,2.0,12.0,97,0.11,,,0.41,63,weatherlink.com 1.10,2013-11-26 14:30:00,
2013-11-26 09:45:00,68.8,68.0,29.93,SSE,148,5.0,11.0,97,0.05,,,0.41,39,weatherlink.com 1.10,2013-11-26 14:45:00,
2013-11-26 10:00:00,68.9,68.0,29.93,SSE,155,8.0,9.0,97,0.02,,,0.41,46,weatherlink.com 1.10,2013-11-26 15:00:00,
2013-11-26 10:15:00,69.0,68.0,29.93,SE,124,2.0,9.0,97,0.01,,,0.41,37,weatherlink.com 1.10,2013-11-26 15:15:00,
2013-11-26 10:30:00,69.2,68.0,29.93,SSW,205,4.0,11.0,97,0.00,,,0.41,39,weatherlink.com 1.10,2013-11-26 15:30:00,
2013-11-26 10:45:00,69.5,69.0,29.92,South,179,5.0,8.0,97,0.00,,,0.41,56,weatherlink.com 1.10,2013-11-26 15:45:00,
2013-11-26 11:00:00,69.7,69.0,29.91,South,178,3.0,10.0,97,0.00,,,0.41,111,weatherlink.com 1.10,2013-11-26 16:00:00,
2013-11-26 11:16:00,70.1,69.0,29.90,South,171,5.0,11.0,97,0.00,,,0.41,46,weatherlink.com 1.10,2013-11-26 16:16:00,
2013-11-26 11:31:00,70.2,69.0,29.89,South,171,2.0,8.0,97,0.01,,,0.42,93,weatherlink.com 1.10,2013-11-26 16:31:00,
2013-11-26 11:46:00,70.5,70.0,29.88,ESE,105,4.0,9.0,97,0.01,,,0.42,91,weatherlink.com 1.10,2013-11-26 16:46:00,
2013-11-26 12:01:00,70.6,70.0,29.87,South,173,2.0,8.0,97,0.01,,,0.42,56,weatherlink.com 1.10,2013-11-26 17:01:00,
2013-11-26 12:16:00,70.8,70.0,29.86,SSE,161,1.0,8.0,97,0.01,,,0.42,42,weatherlink.com 1.10,2013-11-26 17:16:00,
2013-11-26 12:31:00,71.1,70.0,29.85,SE,142,3.0,13.0,96,0.00,,,0.42,91,weatherlink.com 1.10,2013-11-26 17:31:00,
2013-11-26 12:46:00,71.5,70.0,29.84,SSE,153,4.0,11.0,96,0.00,,,0.42,132,weatherlink.com 1.10,2013-11-26 17:46:00,
2013-11-26 13:01:00,72.1,71.0,29.83,East,101,0.0,12.0,95,0.00,,,0.42,237,weatherlink.com 1.10,2013-11-26 18:01:00,
2013-11-26 13:16:00,73.5,72.0,29.82,SSW,194,2.0,11.0,94,0.00,,,0.42,360,weatherlink.com 1.10,2013-11-26 18:16:00,
2013-11-26 13:31:00,74.8,72.0,29.81,SSE,147,4.0,13.0,90,0.00,,,0.42,218,weatherlink.com 1.10,2013-11-26 18:31:00,
2013-11-26 13:46:00,75.7,72.0,29.80,South,179,7.0,13.0,87,0.00,,,0.42,325,weatherlink.com 1.10,2013-11-26 18:46:00,
2013-11-26 14:01:00,76.9,72.0,29.79,SSW,198,2.0,12.0,85,0.00,,,0.42,292,weatherlink.com 1.10,2013-11-26 19:01:00,
2013-11-26 14:16:00,77.4,73.0,29.79,SE,134,3.0,14.0,85,0.00,,,0.42,149,weatherlink.com 1.10,2013-11-26 19:16:00,
2013-11-26 14:31:00,77.3,72.0,29.78,ESE,109,8.0,13.0,84,0.00,,,0.42,160,weatherlink.com 1.10,2013-11-26 19:31:00,
2013-11-26 14:46:00,77.4,72.0,29.77,SE,136,1.0,15.0,83,0.00,,,0.42,134,weatherlink.com 1.10,2013-11-26 19:46:00,
2013-11-26 15:01:00,77.5,72.0,29.76,South,173,2.0,12.0,83,0.00,,,0.42,148,weatherlink.com 1.10,2013-11-26 20:01:00,
2013-11-26 15:16:00,77.5,72.0,29.75,South,171,5.0,13.0,82,0.00,,,0.42,169,weatherlink.com 1.10,2013-11-26 20:16:00,
2013-11-26 15:31:00,77.6,72.0,29.75,South,173,0.0,9.0,82,0.00,,,0.42,176,weatherlink.com 1.10,2013-11-26 20:31:00,
2013-11-26 15:46:00,77.4,72.0,29.76,SSE,161,3.0,10.0,82,0.00,,,0.42,58,weatherlink.com 1.10,2013-11-26 20:46:00,
2013-11-26 16:01:00,77.2,72.0,29.75,SSW,195,2.0,9.0,83,0.00,,,0.42,114,weatherlink.com 1.10,2013-11-26 21:01:00,
2013-11-26 16:16:00,77.1,72.0,29.76,South,177,1.0,10.0,83,0.00,,,0.42,70,weatherlink.com 1.10,2013-11-26 21:16:00,
2013-11-26 16:31:00,76.7,72.0,29.75,SSE,165,1.0,8.0,84,0.00,,,0.42,40,weatherlink.com 1.10,2013-11-26 21:31:00,
2013-11-26 16:46:00,76.4,72.0,29.75,SSE,159,0.0,7.0,85,0.00,,,0.42,12,weatherlink.com 1.10,2013-11-26 21:46:00,
2013-11-26 17:01:00,76.0,71.0,29.75,South,179,0.0,5.0,85,0.00,,,0.42,7,weatherlink.com 1.10,2013-11-26 22:01:00,
2013-11-26 17:16:00,75.8,71.0,29.75,SSE,153,3.0,6.0,86,0.00,,,0.42,5,weatherlink.com 1.10,2013-11-26 22:16:00,
2013-11-26 17:31:00,75.5,71.0,29.75,SSE,157,1.0,5.0,86,0.00,,,0.42,0,weatherlink.com 1.10,2013-11-26 22:31:00,
2013-11-26 17:46:00,75.3,71.0,29.76,South,169,2.0,5.0,87,0.00,,,0.42,0,weatherlink.com 1.10,2013-11-26 22:46:00,
2013-11-26 18:01:00,75.1,71.0,29.75,SSE,163,0.0,5.0,87,0.00,,,0.42,0,weatherlink.com 1.10,2013-11-26 23:01:00,
2013-11-26 18:16:00,74.8,71.0,29.76,SSE,162,0.0,6.0,87,0.00,,,0.42,0,weatherlink.com 1.10,2013-11-26 23:16:00,
2013-11-26 18:31:00,74.7,71.0,29.75,South,181,0.0,5.0,88,0.00,,,0.42,0,weatherlink.com 1.10,2013-11-26 23:31:00,
2013-11-26 18:46:00,74.6,71.0,29.75,SSE,168,1.0,5.0,88,0.00,,,0.42,0,weatherlink.com 1.10,2013-11-26 23:46:00,
2013-11-26 19:01:00,74.4,71.0,29.76,South,187,1.0,6.0,89,0.00,,,0.42,0,weatherlink.com 1.10,2013-11-27 00:01:00,
2013-11-26 19:16:00,73.8,71.0,29.76,SSW,212,0.0,5.0,90,0.01,,,0.43,0,weatherlink.com 1.10,2013-11-27 00:16:00,
2013-11-26 19:31:00,73.3,71.0,29.76,SW,226,2.0,6.0,92,0.01,,,0.43,0,weatherlink.com 1.10,2013-11-27 00:31:00,
2013-11-26 19:46:00,72.9,71.0,29.76,South,191,3.0,4.0,93,0.01,,,0.43,0,weatherlink.com 1.10,2013-11-27 00:46:00,
2013-11-26 20:02:00,72.6,71.0,29.76,SW,229,2.0,4.0,94,0.03,,,0.45,0,weatherlink.com 1.10,2013-11-27 01:02:00,
2013-11-26 20:17:00,72.3,71.0,29.76,South,177,0.0,5.0,95,0.06,,,0.49,0,weatherlink.com 1.10,2013-11-27 01:17:00,
2013-11-26 20:32:00,72.1,71.0,29.76,SSW,194,0.0,3.0,95,0.10,,,0.53,0,weatherlink.com 1.10,2013-11-27 01:32:00,
2013-11-26 20:47:00,71.9,71.0,29.76,SSW,209,0.0,4.0,96,0.12,,,0.55,0,weatherlink.com 1.10,2013-11-27 01:47:00,
2013-11-26 21:02:00,71.8,71.0,29.77,SW,234,19.0,19.0,96,0.20,,,0.65,0,weatherlink.com 1.10,2013-11-27 02:02:00,
2013-11-26 21:17:00,71.8,71.0,29.75,SSE,167,1.0,10.0,97,0.40,,,0.89,0,weatherlink.com 1.10,2013-11-27 02:17:00,
2013-11-26 21:32:00,72.1,71.0,29.75,SSW,193,1.0,15.0,96,0.39,,,0.92,0,weatherlink.com 1.10,2013-11-27 02:32:00,
2013-11-26 21:47:00,72.0,71.0,29.75,SSE,157,6.0,10.0,96,0.39,,,0.94,0,weatherlink.com 1.10,2013-11-27 02:47:00,
2013-11-26 22:02:00,71.8,71.0,29.74,SSE,152,0.0,8.0,97,0.29,,,0.96,0,weatherlink.com 1.10,2013-11-27 03:02:00,
2013-11-26 22:17:00,71.7,71.0,29.73,SSE,159,3.0,6.0,97,0.09,,,0.98,0,weatherlink.com 1.10,2013-11-27 03:17:00,
2013-11-26 22:32:00,71.5,71.0,29.73,SSE,166,0.0,10.0,97,0.07,,,0.99,0,weatherlink.com 1.10,2013-11-27 03:32:00,
2013-11-26 22:47:00,71.4,71.0,29.73,South,176,3.0,10.0,97,0.07,,,1.01,0,weatherlink.com 1.10,2013-11-27 03:47:00,
2013-11-26 23:02:00,71.3,70.0,29.73,South,171,1.0,7.0,97,0.07,,,1.03,0,weatherlink.com 1.10,2013-11-27 04:02:00,
2013-11-26 23:17:00,71.3,70.0,29.72,SW,235,3.0,7.0,97,0.10,,,1.08,0,weatherlink.com 1.10,2013-11-27 04:17:00,
2013-11-26 23:32:00,71.4,71.0,29.72,SSW,207,2.0,7.0,97,0.13,,,1.12,0,weatherlink.com 1.10,2013-11-27 04:32:00,
2013-11-26 23:47:00,71.4,71.0,29.72,South,169,4.0,8.0,97,0.18,,,1.19,0,weatherlink.com 1.10,2013-11-27 04:47:00,